• En España
  • Lista de países
  • Para 7 días
  • Temperatura del agua
  • Mapa Satelital
  • El tiempo en el mapa
  • Informadores
  • user-avatar
    Iniciar sesión

    Tiempo cada hora Kazanskoe

    Hoy, 22 Julio, Domingo

    Tiempo Temperatura Precipitaciones Viento Presión Humedad
    00:00 +19°C° 0 mm 3 mps 739 mmHg 95%
    01:00 +19°C° 0 mm 3 mps 739 mmHg 96%
    02:00 +19°C° 0 mm 4 mps 739 mmHg 97%
    03:00 +19°C° 0 mm 3 mps 738 mmHg 98%
    04:00 +19°C° 0,1 mm 3 mps 739 mmHg 98%
    05:00 +19°C° 0,1 mm 4 mps 739 mmHg 97%
    06:00 +19°C° 0,1 mm 4 mps 739 mmHg 97%
    07:00 +20°C° 0,1 mm 4 mps 739 mmHg 96%
    08:00 +20°C° 0,1 mm 5 mps 739 mmHg 95%
    09:00 +20°C° 0,1 mm 5 mps 739 mmHg 94%
    10:00 +20°C° 0 mm 5 mps 739 mmHg 93%
    11:00 +20°C° 0 mm 5 mps 739 mmHg 92%
    12:00 +21°C° 0 mm 5 mps 739 mmHg 91%
    13:00 +21°C° 0 mm 5 mps 739 mmHg 89%
    14:00 +21°C° 0 mm 5 mps 739 mmHg 88%
    15:00 +22°C° 0 mm 5 mps 739 mmHg 87%
    16:00 +21°C° 0 mm 5 mps 739 mmHg 87%
    17:00 +21°C° 0 mm 5 mps 739 mmHg 87%
    18:00 +21°C° 0 mm 5 mps 739 mmHg 87%
    19:00 +21°C° 0 mm 5 mps 739 mmHg 88%
    20:00 +20°C° 0 mm 5 mps 739 mmHg 89%
    21:00 +20°C° 0 mm 5 mps 739 mmHg 91%
    22:00 +19°C° 0,1 mm 5 mps 739 mmHg 92%
    23:00 +19°C° 0,1 mm 5 mps 739 mmHg 93%

    Mañana, 23 Julio, Lunes

    Tiempo Temperatura Precipitaciones Viento Presión Humedad
    00:00 +19°C° 0,1 mm 5 mps 739 mmHg 94%
    01:00 +19°C° 0 mm 5 mps 739 mmHg 93%
    02:00 +19°C° 0 mm 5 mps 739 mmHg 93%
    03:00 +19°C° 0 mm 5 mps 739 mmHg 93%
    04:00 +17°C° 0,1 mm 5 mps 739 mmHg 93%
    05:00 +17°C° 0,1 mm 5 mps 739 mmHg 94%
    06:00 +17°C° 0,1 mm 5 mps 739 mmHg 94%
    07:00 +17°C° 0,1 mm 5 mps 739 mmHg 93%
    08:00 +17°C° 0,1 mm 5 mps 739 mmHg 93%
    09:00 +17°C° 0,1 mm 5 mps 740 mmHg 92%
    10:00 +17°C° 0 mm 5 mps 740 mmHg 91%
    11:00 +17°C° 0 mm 5 mps 740 mmHg 90%
    12:00 +17°C° 0 mm 5 mps 740 mmHg 89%
    13:00 +17°C° 0,1 mm 5 mps 740 mmHg 89%
    14:00 +19°C° 0,1 mm 5 mps 740 mmHg 88%
    15:00 +19°C° 0,1 mm 5 mps 740 mmHg 87%
    16:00 +19°C° 0 mm 5 mps 740 mmHg 87%
    17:00 +20°C° 0 mm 5 mps 740 mmHg 87%
    18:00 +20°C° 0 mm 5 mps 740 mmHg 88%
    19:00 +20°C° 0,1 mm 5 mps 740 mmHg 89%
    20:00 +19°C° 0,1 mm 5 mps 740 mmHg 91%
    21:00 +19°C° 0,1 mm 5 mps 740 mmHg 92%
    22:00 +19°C° 0,2 mm 5 mps 740 mmHg 93%
    23:00 +19°C° 0,2 mm 5 mps 740 mmHg 94%

    Pasado mañana, 24 Julio, Martes

    Tiempo Temperatura Precipitaciones Viento Presión Humedad
    00:00 +19°C° 0,2 mm 5 mps 740 mmHg 95%
    01:00 +19°C° 0,1 mm 5 mps 740 mmHg 96%
    02:00 +19°C° 0,1 mm 4 mps 740 mmHg 96%
    03:00 +19°C° 0,1 mm 4 mps 740 mmHg 96%
    04:00 +19°C° 0 mm 4 mps 740 mmHg 96%
    05:00 +19°C° 0 mm 4 mps 740 mmHg 96%
    06:00 +19°C° 0 mm 4 mps 741 mmHg 96%
    07:00 +20°C° 0 mm 4 mps 741 mmHg 94%
    08:00 +21°C° 0 mm 4 mps 741 mmHg 92%
    09:00 +22°C° 0 mm 4 mps 741 mmHg 90%
    10:00 +23°C° 0,3 mm 4 mps 741 mmHg 87%
    11:00 +25°C° 0,3 mm 4 mps 742 mmHg 83%
    12:00 +26°C° 0,3 mm 4 mps 742 mmHg 80%
    13:00 +26°C° 0,4 mm 4 mps 742 mmHg 78%
    14:00 +27°C° 0,4 mm 4 mps 742 mmHg 77%
    15:00 +27°C° 0,4 mm 4 mps 742 mmHg 76%
    16:00 +26°C° 0,6 mm 4 mps 742 mmHg 80%
    17:00 +25°C° 0,6 mm 4 mps 743 mmHg 84%
    18:00 +24°C° 0,6 mm 3 mps 743 mmHg 87%
    19:00 +22°C° 0,6 mm 3 mps 743 mmHg 90%
    20:00 +21°C° 0,6 mm 3 mps 743 mmHg 92%
    21:00 +20°C° 0,6 mm 3 mps 743 mmHg 94%
    22:00 +20°C° 0,1 mm 3 mps 744 mmHg 95%
    23:00 +20°C° 0,1 mm 3 mps 744 mmHg 95%

    25 Julio, Miércoles

    Tiempo Temperatura Precipitaciones Viento Presión Humedad
    00:00 +19°C° 0,1 mm 3 mps 744 mmHg 96%
    01:00 +19°C° 0 mm 3 mps 744 mmHg 95%
    02:00 +18°C° 0 mm 3 mps 744 mmHg 95%
    03:00 +18°C° 0 mm 3 mps 744 mmHg 94%
    04:00 +18°C° 0 mm 3 mps 744 mmHg 93%
    05:00 +18°C° 0 mm 4 mps 744 mmHg 91%
    06:00 +18°C° 0 mm 4 mps 744 mmHg 90%
    07:00 +19°C° 0 mm 5 mps 744 mmHg 85%
    08:00 +20°C° 0 mm 5 mps 744 mmHg 81%
    09:00 +20°C° 0 mm 6 mps 744 mmHg 77%
    10:00 +21°C° 0 mm 6 mps 745 mmHg 73%
    11:00 +22°C° 0 mm 6 mps 745 mmHg 70%
    12:00 +23°C° 0 mm 6 mps 745 mmHg 66%
    13:00 +23°C° 0 mm 6 mps 745 mmHg 65%
    14:00 +24°C° 0 mm 7 mps 745 mmHg 63%
    15:00 +26°C° 0 mm 7 mps 745 mmHg 61%
    16:00 +24°C° 0 mm 6 mps 745 mmHg 64%
    17:00 +24°C° 0 mm 6 mps 745 mmHg 67%
    18:00 +25°C° 0 mm 5 mps 745 mmHg 70%
    19:00 +23°C° 0 mm 5 mps 746 mmHg 71%
    20:00 +22°C° 0 mm 4 mps 746 mmHg 72%
    21:00 +21°C° 0 mm 4 mps 746 mmHg 73%
    22:00 +21°C° 0 mm 4 mps 746 mmHg 74%
    23:00 +20°C° 0 mm 4 mps 746 mmHg 76%

    26 Julio, Jueves

    Tiempo Temperatura Precipitaciones Viento Presión Humedad
    00:00 +20°C° 0 mm 4 mps 746 mmHg 77%
    01:00 +19°C° 0 mm 4 mps 747 mmHg 80%
    02:00 +19°C° 0 mm 4 mps 747 mmHg 83%
    03:00 +18°C° 0 mm 4 mps 747 mmHg 85%
    04:00 +18°C° 0 mm 4 mps 747 mmHg 86%
    05:00 +18°C° 0 mm 4 mps 747 mmHg 86%
    06:00 +18°C° 0 mm 4 mps 747 mmHg 87%
    07:00 +20°C° 0 mm 4 mps 747 mmHg 83%
    08:00 +21°C° 0 mm 5 mps 747 mmHg 79%
    09:00 +23°C° 0 mm 5 mps 747 mmHg 75%
    10:00 +25°C° 0 mm 5 mps 747 mmHg 74%
    11:00 +24°C° 0 mm 6 mps 748 mmHg 72%
    12:00 +26°C° 0 mm 6 mps 748 mmHg 70%
    13:00 +26°C° 0 mm 5 mps 748 mmHg 70%
    14:00 +26°C° 0 mm 5 mps 748 mmHg 71%
    15:00 +27°C° 0 mm 5 mps 748 mmHg 71%
    16:00 +27°C° 0 mm 4 mps 748 mmHg 72%
    17:00 +27°C° 0 mm 4 mps 748 mmHg 73%
    18:00 +27°C° 0 mm 3 mps 748 mmHg 74%
    19:00 +26°C° 0 mm 3 mps 748 mmHg 77%
    20:00 +25°C° 0 mm 3 mps 748 mmHg 80%
    21:00 +22°C° 0 mm 3 mps 748 mmHg 83%
    22:00 +22°C° 0,1 mm 3 mps 748 mmHg 84%
    23:00 +22°C° 0,1 mm 3 mps 749 mmHg 84%

    27 Julio, Viernes

    Tiempo Temperatura Precipitaciones Viento Presión Humedad
    00:00 +22°C° 0,1 mm 3 mps 749 mmHg 85%
    01:00 +21°C° 0,2 mm 3 mps 749 mmHg 87%
    02:00 +21°C° 0,2 mm 3 mps 749 mmHg 89%
    03:00 +20°C° 0,2 mm 3 mps 749 mmHg 91%
    04:00 +20°C° 0,2 mm 3 mps 749 mmHg 91%
    05:00 +20°C° 0,2 mm 3 mps 750 mmHg 91%
    06:00 +20°C° 0,2 mm 3 mps 750 mmHg 91%
    07:00 +21°C° 0 mm 3 mps 750 mmHg 86%
    08:00 +24°C° 0 mm 3 mps 750 mmHg 82%
    09:00 +25°C° 0 mm 4 mps 750 mmHg 77%
    10:00 +26°C° 0 mm 4 mps 750 mmHg 71%
    11:00 +27°C° 0 mm 5 mps 750 mmHg 65%
    12:00 +29°C° 0 mm 5 mps 750 mmHg 58%
    13:00 +29°C° 0 mm 5 mps 750 mmHg 58%
    14:00 +29°C° 0 mm 5 mps 750 mmHg 57%
    15:00 +29°C° 0 mm 5 mps 750 mmHg 57%
    16:00 +29°C° 0 mm 4 mps 750 mmHg 61%
    17:00 +28°C° 0 mm 3 mps 750 mmHg 66%
    18:00 +28°C° 0 mm 3 mps 750 mmHg 70%
    19:00 +26°C° 0 mm 3 mps 750 mmHg 73%
    20:00 +25°C° 0 mm 2 mps 750 mmHg 76%
    21:00 +23°C° 0 mm 2 mps 750 mmHg 79%
    22:00 +23°C° 0 mm 2 mps 750 mmHg 80%
    23:00 +21°C° 0 mm 2 mps 750 mmHg 81%
    Mostrar más